New Bedford, MA

10:37 AM EDT on June 29, 2017 (GMT -0400)
New Bedford Regional

Weather History for KEWB - June, 2014

Change the Weather History Date:

Saturday, June 7, 2014

  Actual Average Record
Temperature  
Mean Temperature 66 °F -  
Max Temperature 79 °F 71 °F 91 °F (1999)
Min Temperature 54 °F 55 °F 39 °F (2007)
Cooling Degree Days 2    
Growing Degree Days 16 (Base 50)    
Moisture  
Dew Point 55 °F    
Average Humidity 67    
Maximum Humidity 90    
Minimum Humidity 45    
Precipitation  
Precipitation 0.00 in - - ()
Sea Level Pressure  
Sea Level Pressure 29.90 in    
Wind  
Wind Speed 3 mph (SW)    
Max Wind Speed 16 mph    
Max Gust Speed -    
Visibility 10 miles    
Events      
Averages and records for this station are not official NWS values.
T = Trace of Precipitation, MM = Missing Value Source: NWS Daily Summary

Daily Weather History Graph

Daily Weather History Graph

Search for Another Location

Airport or City:

Trip Planner

Search our weather history database for the weather conditions in past years. The results will help you decide how hot, cold, wet, or windy it might be!

Date:

Astronomy

Jun. 07, 2014 Rise Set
Actual Time 5:09 AM EDT 8:16 PM EDT
Civil Twilight 4:35 AM EDT 8:49 PM EDT
Nautical Twilight 3:52 AM EDT 9:33 PM EDT
Astronomical Twilight 3:01 AM EDT 10:24 PM EDT
Moon 2:26 PM EDT (6/7) 1:34 AM EDT (6/7)
Length of Visible Light 16h 13m
Length of Day
15h 06m
Waxing Gibbous, 67% of the Moon is Illuminated
Jun 7
Waxing Gibbous
Jun 13
Full
Jun 19
Last Quarter
Jun 27
New
Jul 5
First Quarter

Hourly Weather History & Observations

Time (EDT) Temp. Dew Point Humidity Pressure Visibility Wind Dir Wind Speed Gust Speed Precip Events Conditions
12:53 AM 55.9 °F 52.0 °F 87% 29.88 in 10.0 mi Calm Calm - N/A   Clear
1:53 AM 57.0 °F 51.1 °F 81% 29.88 in 10.0 mi Calm Calm - N/A   Clear
2:53 AM 54.0 °F 51.1 °F 90% 29.88 in 10.0 mi Calm Calm - N/A   Clear
3:53 AM 54.0 °F 50.0 °F 86% 29.88 in 10.0 mi Calm Calm - N/A   Clear
4:53 AM 55.4 °F 51.8 °F 88% 29.88 in 10.0 mi Calm Calm - N/A   Clear
5:53 AM 55.9 °F 52.0 °F 87% 29.89 in 10.0 mi Calm Calm - N/A   Clear
6:53 AM 61.0 °F 54.0 °F 78% 29.91 in 10.0 mi WNW 3.5 mph - N/A   Clear
7:53 AM 66.9 °F 55.0 °F 66% 29.91 in 10.0 mi Variable 4.6 mph - N/A   Clear
8:53 AM 69.8 °F 55.4 °F 60% 29.93 in 10.0 mi North 8.1 mph - N/A   Clear
9:53 AM 73.4 °F 55.4 °F 53% 29.92 in 10.0 mi North - - N/A   Clear
10:53 AM 75.2 °F 55.4 °F 50% 29.93 in 10.0 mi ENE 5.8 mph - N/A   Clear
11:53 AM 78.1 °F 55.9 °F 46% 29.92 in 10.0 mi Variable 3.5 mph - N/A   Partly Cloudy
12:53 PM 78.1 °F 55.0 °F 45% 29.91 in 10.0 mi Variable 5.8 mph - N/A   Scattered Clouds
1:53 PM 77.0 °F 57.9 °F 52% 29.91 in 10.0 mi SSW 9.2 mph - N/A   Mostly Cloudy
2:53 PM 75.0 °F 57.9 °F 55% 29.91 in 10.0 mi South 16.1 mph - N/A   Mostly Cloudy
3:53 PM 75.9 °F 57.9 °F 54% 29.90 in 10.0 mi SSW 10.4 mph - N/A   Mostly Cloudy
4:53 PM 79.0 °F 57.9 °F 48% 29.88 in 10.0 mi SSW 10.4 mph - N/A   Scattered Clouds
5:53 PM 77.0 °F 57.0 °F 50% 29.88 in 10.0 mi SW 9.2 mph - N/A   Clear
6:53 PM 75.0 °F 57.0 °F 53% 29.88 in 10.0 mi SW 4.6 mph - N/A   Clear
7:53 PM 71.1 °F 57.0 °F 61% 29.89 in 10.0 mi Calm Calm - N/A   Clear
8:53 PM 66.9 °F 55.9 °F 68% 29.89 in 10.0 mi WSW 4.6 mph - N/A   Clear
9:53 PM 63.0 °F 55.9 °F 78% 29.91 in 10.0 mi SW 3.5 mph - N/A   Clear
10:53 PM 61.0 °F 55.9 °F 83% 29.92 in 10.0 mi Calm Calm - N/A   Clear
11:53 PM 61.0 °F 55.9 °F 83% 29.92 in 10.0 mi Calm Calm - N/A   Clear